TimeCST,TemperatureF,Dew PointF,Humidity,Sea Level PressureIn,VisibilityMPH,Wind Direction,Wind SpeedMPH,Gust SpeedMPH,PrecipitationIn,Events,Conditions,WindDirDegrees,DateUTC
12:35 AM,19.4,12.2,74,30.34,10.0,NE,9.2,-,N/A,,Overcast,40,2014-01-09 06:35:00
12:55 AM,19.4,12.2,74,30.33,10.0,NE,8.1,-,N/A,,Overcast,40,2014-01-09 06:55:00
1:15 AM,19.4,12.2,74,30.33,10.0,NE,9.2,-,N/A,,Overcast,40,2014-01-09 07:15:00
1:35 AM,19.4,12.2,74,30.33,10.0,NE,5.8,-,N/A,,Overcast,40,2014-01-09 07:35:00
1:55 AM,19.4,12.2,74,30.33,10.0,NE,9.2,-,N/A,,Overcast,50,2014-01-09 07:55:00
2:15 AM,19.4,12.2,74,30.33,10.0,NE,9.2,-,N/A,,Overcast,40,2014-01-09 08:15:00
2:35 AM,19.4,12.2,74,30.33,10.0,NE,5.8,-,N/A,,Overcast,40,2014-01-09 08:35:00
2:55 AM,19.4,14.0,80,30.33,5.0,NE,6.9,-,N/A,Snow,Light Snow,40,2014-01-09 08:55:00
3:15 AM,19.4,14.0,80,30.33,7.0,NE,6.9,-,N/A,Snow,Light Snow,40,2014-01-09 09:15:00
3:35 AM,19.4,14.0,80,30.31,5.0,NE,8.1,-,N/A,Snow,Light Snow,40,2014-01-09 09:35:00
3:55 AM,19.4,14.0,80,30.31,7.0,NNE,5.8,-,N/A,Snow,Light Snow,30,2014-01-09 09:55:00
4:15 AM,19.4,14.0,80,30.30,10.0,NE,5.8,-,N/A,,Overcast,40,2014-01-09 10:15:00
4:35 AM,19.4,14.0,80,30.30,7.0,NNE,6.9,-,N/A,Snow,Light Snow,20,2014-01-09 10:35:00
4:55 AM,19.4,14.0,80,30.30,5.0,NNE,5.8,-,N/A,Snow,Light Snow,30,2014-01-09 10:55:00
5:15 AM,19.4,14.0,80,30.29,7.0,NE,6.9,-,N/A,Snow,Light Snow,40,2014-01-09 11:15:00
5:35 AM,19.4,14.0,80,30.28,7.0,NE,5.8,-,N/A,,Overcast,40,2014-01-09 11:35:00
5:55 AM,19.4,15.8,86,30.28,10.0,NE,4.6,-,N/A,,Overcast,40,2014-01-09 11:55:00
6:15 AM,19.4,15.8,86,30.28,5.0,NE,5.8,-,N/A,Snow,Light Snow,40,2014-01-09 12:15:00
6:35 AM,19.4,15.8,86,30.27,4.0,NE,4.6,-,N/A,Snow,Light Snow,40,2014-01-09 12:35:00
6:55 AM,19.4,15.8,86,30.26,3.0,NNE,5.8,-,N/A,Snow,Light Snow,30,2014-01-09 12:55:00
7:15 AM,19.4,15.8,86,30.26,3.0,NE,3.5,-,N/A,Snow,Light Snow,40,2014-01-09 13:15:00
7:35 AM,19.4,15.8,86,30.26,7.0,NE,4.6,-,N/A,,Overcast,40,2014-01-09 13:35:00
7:55 AM,19.4,17.6,93,30.26,5.0,NE,4.6,-,N/A,,Overcast,40,2014-01-09 13:55:00
8:15 AM,19.4,17.6,93,30.27,5.0,NE,3.5,-,N/A,,Overcast,40,2014-01-09 14:15:00
8:35 AM,19.4,17.6,93,30.27,3.0,ENE,3.5,-,N/A,Snow,Light Snow,60,2014-01-09 14:35:00
8:55 AM,19.4,17.6,93,30.27,2.5,NE,4.6,-,N/A,Snow,Light Snow,40,2014-01-09 14:55:00
9:15 AM,19.4,17.6,93,30.27,2.5,ENE,3.5,-,N/A,Snow,Light Snow,60,2014-01-09 15:15:00
9:35 AM,21.2,17.6,86,30.28,5.0,NE,3.5,-,N/A,Snow,Light Snow,50,2014-01-09 15:35:00
9:55 AM,21.2,17.6,86,30.28,5.0,NE,3.5,-,N/A,,Overcast,50,2014-01-09 15:55:00
10:15 AM,21.2,19.4,93,30.28,5.0,Calm,Calm,-,N/A,,Overcast,0,2014-01-09 16:15:00
10:35 AM,21.2,19.4,93,30.27,4.0,Calm,Calm,-,N/A,Snow,Light Snow,0,2014-01-09 16:35:00
10:55 AM,21.2,19.4,93,30.26,3.0,Calm,Calm,-,N/A,Snow,Light Snow,0,2014-01-09 16:55:00
11:15 AM,21.2,19.4,93,30.24,3.0,Calm,Calm,-,N/A,Snow,Light Snow,0,2014-01-09 17:15:00
11:35 AM,23.0,19.4,86,30.23,3.0,Calm,Calm,-,N/A,Snow,Light Snow,0,2014-01-09 17:35:00
11:55 AM,23.0,19.4,86,30.22,5.0,Calm,Calm,-,N/A,,Overcast,0,2014-01-09 17:55:00
12:15 PM,23.0,19.4,86,30.20,5.0,Calm,Calm,-,N/A,,Overcast,0,2014-01-09 18:15:00
12:35 PM,24.8,21.2,86,30.19,5.0,Calm,Calm,-,N/A,,Overcast,0,2014-01-09 18:35:00
12:55 PM,24.8,21.2,86,30.17,7.0,Calm,Calm,-,N/A,,Overcast,0,2014-01-09 18:55:00
1:15 PM,26.6,21.2,80,30.17,5.0,Calm,Calm,-,N/A,,Overcast,0,2014-01-09 19:15:00
1:35 PM,26.6,23.0,86,30.16,5.0,Calm,Calm,-,N/A,,Overcast,0,2014-01-09 19:35:00
1:55 PM,26.6,23.0,86,30.16,4.0,Calm,Calm,-,N/A,,Overcast,0,2014-01-09 19:55:00
2:35 PM,26.6,23.0,86,30.15,4.0,Calm,Calm,-,N/A,,Overcast,0,2014-01-09 20:35:00
2:55 PM,28.4,24.8,86,30.15,3.0,Calm,Calm,-,N/A,,Overcast,0,2014-01-09 20:55:00
3:15 PM,28.4,24.8,86,30.15,4.0,Calm,Calm,-,N/A,,Overcast,0,2014-01-09 21:15:00
3:35 PM,28.4,26.6,93,30.15,3.0,Calm,Calm,-,N/A,,Overcast,0,2014-01-09 21:35:00
3:55 PM,28.4,26.6,93,30.15,3.0,Calm,Calm,-,N/A,,Overcast,0,2014-01-09 21:55:00
4:15 PM,28.4,26.6,93,30.14,3.0,Calm,Calm,-,N/A,,Overcast,0,2014-01-09 22:15:00
5:15 PM,28.4,24.8,86,30.13,4.0,Calm,Calm,-,N/A,,Overcast,0,2014-01-09 23:15:00
5:35 PM,28.4,24.8,86,30.13,5.0,Calm,Calm,-,N/A,,Overcast,0,2014-01-09 23:35:00
5:55 PM,28.4,26.6,93,30.13,5.0,Calm,Calm,-,N/A,,Overcast,0,2014-01-09 23:55:00
6:15 PM,28.4,26.6,93,30.12,5.0,Calm,Calm,-,N/A,,Overcast,0,2014-01-10 00:15:00
6:35 PM,28.4,26.6,93,30.12,5.0,Calm,Calm,-,N/A,,Overcast,0,2014-01-10 00:35:00
6:55 PM,28.4,26.6,93,30.11,5.0,NE,3.5,-,N/A,,Overcast,50,2014-01-10 00:55:00
7:15 PM,30.2,26.6,86,30.10,7.0,Calm,Calm,-,N/A,,Overcast,0,2014-01-10 01:15:00
7:35 PM,30.2,26.6,86,30.10,7.0,Calm,Calm,-,N/A,,Overcast,0,2014-01-10 01:35:00
7:55 PM,30.2,26.6,86,30.10,7.0,Calm,Calm,-,N/A,,Overcast,0,2014-01-10 01:55:00
8:15 PM,30.2,26.6,86,30.10,5.0,Calm,Calm,-,N/A,,Overcast,0,2014-01-10 02:15:00
8:35 PM,30.2,28.4,93,30.10,5.0,Calm,Calm,-,N/A,,Overcast,0,2014-01-10 02:35:00
8:55 PM,30.2,28.4,93,30.09,7.0,Calm,Calm,-,N/A,,Overcast,0,2014-01-10 02:55:00
9:15 PM,30.2,28.4,93,30.10,5.0,Calm,Calm,-,N/A,,Overcast,0,2014-01-10 03:15:00
9:35 PM,32.0,28.4,87,30.10,5.0,Calm,Calm,-,N/A,,Overcast,0,2014-01-10 03:35:00
9:55 PM,32.0,30.2,93,30.09,4.0,SE,3.5,-,N/A,,Overcast,130,2014-01-10 03:55:00
10:15 PM,32.0,30.2,93,30.08,3.0,SE,4.6,-,N/A,,Overcast,130,2014-01-10 04:15:00
10:35 PM,32.0,32.0,100,30.08,5.0,SE,6.9,-,N/A,,Overcast,130,2014-01-10 04:35:00
10:55 PM,32.0,32.0,100,30.08,4.0,SE,8.1,-,N/A,,Overcast,140,2014-01-10 04:55:00
11:15 PM,32.0,32.0,100,30.07,4.0,SSE,6.9,-,N/A,,Overcast,150,2014-01-10 05:15:00
11:35 PM,32.0,32.0,100,30.05,5.0,SE,6.9,-,N/A,,Overcast,130,2014-01-10 05:35:00
11:55 PM,32.0,32.0,100,30.04,5.0,SE,8.1,-,N/A,,Overcast,130,2014-01-10 05:55:00